STARLINK-11516, 62522

Orbit data source: Space-Track

STARLINK-11516, 62522 is a payload satellite owned by SpaceX/Seattle (US) in LEO that was launched on Wed, 08 Jan 2025 UTC via an FALCON 9 launch vehicle from the Air Force Eastern Test Range (AFETR). Payload-class satellites include a variety of spacecraft equipped with specific instruments for various scientific and technological missions. These include communications satellites like Starlink; space stations such as the ISS; scientific satellites like the Hubble; Earth observation satellites from companies like Planet Labs, Umbra, and HawkEye 360; GPS; miniature CubeSats for education and research; and military/defense satellites.

Loading next visibility...
Identifier
62522, 2025-004M
Orbit
LEO
Country
Flag of USUS
Related business
Manufacturer
SpaceX/Seattle
Mission
Operational Commercial Communications
Bus & Motor
STARLINK V2MD, Unknown motor
Mass
960 kg wet, ~910 kg dry
Launch date (UTC)
2025-01-08 (2 years ago)
Launch vehicle
FALCON 9
Launch site
Air Force Eastern Test Range (AFETR)
Object type
Payload
Rocket body
Debris
Shape & HBR
Box + 2 Pan, 18.1 m
Radar Cross Section
36.964 m², Large (>1 m²)

Expand to show TLE details & history
Last TLE update: 3 days ago

TLE from 3 days ago
0 STARLINK-11516
1 62522U 25004M   26252.40675125  .00146650  00000-0  11232-2 0  9998
2 62522  43.0007  43.2316 0002440 234.1130 125.9511 15.70905526 96106
Epoch: 2026-09-09T09:45Z
TLE epoch observation values (Epoch: 2026-09-09T09:45:43.307Z)
Latitude
-0.00006°
Longitude
-91.65818°
Altitude
357.044 km
Speed
7.696 km/s
True Right ascension
02h 52m 55s
True Declination
0° 00' 00"
Sunlit
Object was in full shadow at epoch
Visualization orbit readout
Latitude
Unknown
Longitude
Unknown
Altitude
Unknown
Speed
Unknown
Apparent Right ascension
Unknown
Apparent Declination
Unknown
Sunlit
N/A
Visualization observer readout
Local Sidereal Time
21:33:30
Azimuth
Unknown
Elevation
Unknown
Doppler factor
Unknown
Orbital elements
Apogee altitude
359.933 km
Perigee altitude
356.646 km
Semi-major axis
6,736.426 km
Eccentricity
0.00024
Inclination
43.0007°
RAAN
43.2316°
Arg. of periapsis
234.113°
True anomaly
125.97373°
Mean anomaly
125.9511°
Eccentric anomaly
125.96242°
Mean motion
3.92553 °/min
Orbital period
91.71 mins
BSTAR
0.0011232
Loading maneuver chart data...
Computing Atmospheric mass density...
Loading historical data...
Loading historical data...
Loading historical data...
Loading historical data...
Loading historical data...
Loading historical data...
Loading historical data...

Documentation

Showing up to 5 results
|